Monticello, KY

3:46 AM EDT on August 21, 2017 (GMT -0400)
Wayne County

Weather History for KEKQ - April, 2013

Change the Weather History Date:

Friday, April 12, 2013

  Actual Average Record
Temperature  
Mean Temperature 52 °F -  
Max Temperature 62 °F 71 °F 84 °F (1977)
Min Temperature 41 °F 41 °F 21 °F (1989)
Degree Days  
Heating Degree Days 12    
Growing Degree Days 2 (Base 50)    
Moisture  
Dew Point 46 °F    
Average Humidity 84    
Maximum Humidity 100    
Minimum Humidity 44    
Precipitation  
Precipitation 0.25 in - - ()
Sea Level Pressure  
Sea Level Pressure 29.79 in    
Wind  
Wind Speed 13 mph (West)    
Max Wind Speed 26 mph    
Max Gust Speed 36 mph    
Visibility 7 miles    
Events Rain    
Averages and records for this station are not official NWS values.
T = Trace of Precipitation, MM = Missing Value Source: NWS Daily Summary

Daily Weather History Graph

Daily Weather History Graph

Search for Another Location

Airport or City:

Trip Planner

Search our weather history database for the weather conditions in past years. The results will help you decide how hot, cold, wet, or windy it might be!

Date:

Astronomy

Apr. 12, 2013 Rise Set
Actual Time 6:09 AM CDT 7:11 PM CDT
Civil Twilight 5:42 AM CDT 7:38 PM CDT
Nautical Twilight 5:11 AM CDT 8:09 PM CDT
Astronomical Twilight 4:38 AM CDT 8:42 PM CDT
Moon 7:21 AM CDT (4/12) 9:37 PM CDT (4/12)
Length of Visible Light 13h 55m
Length of Day
13h 02m
Waxing Crescent, 5% of the Moon is Illuminated
Apr 12
Waxing Crescent
Apr 18
First Quarter
Apr 25
Full
May 2
Last Quarter
May 9
New

Hourly Weather History & Observations

Time (CDT) Temp. Windchill Dew Point Humidity Pressure Visibility Wind Dir Wind Speed Gust Speed Precip Events Conditions
12:18 AM 62.6 °F - 60.8 °F 94% 29.59 in 2.5 mi South 11.5 mph 21.9 mph 0.02 in Rain Heavy Rain
12:24 AM 62.6 °F - 60.8 °F 94% 29.59 in 1.2 mi SSW 11.5 mph - 0.03 in Rain Light Rain
12:30 AM 60.8 °F - 60.8 °F 100% 29.60 in 2.0 mi WSW 8.1 mph - 0.04 in Rain Rain
12:36 AM 60.8 °F - 60.8 °F 100% 29.60 in 1.2 mi West 16.1 mph 23.0 mph 0.08 in Rain Heavy Rain
12:40 AM 60.8 °F - 60.8 °F 100% 29.60 in 1.0 mi West 13.8 mph 23.0 mph 0.12 in Rain Heavy Rain
12:56 AM 57.9 °F - 57.9 °F 100% 29.61 in 1.2 mi West 12.7 mph - 0.15 in Rain Rain
1:15 AM 57.2 °F - 57.2 °F 100% 29.64 in 1.0 mi WNW 19.6 mph 24.2 mph 0.06 in Rain Heavy Rain
1:22 AM 55.4 °F - 55.4 °F 100% 29.64 in 1.5 mi WNW 26.5 mph 35.7 mph 0.07 in Rain Light Rain
1:26 AM 55.4 °F - 55.4 °F 100% 29.65 in 2.0 mi WNW 23.0 mph 32.2 mph 0.07 in Rain Rain
1:38 AM 53.6 °F - 53.6 °F 100% 29.66 in 4.0 mi WNW 19.6 mph 28.8 mph 0.08 in Rain Light Rain
1:56 AM 52.9 °F - 52.9 °F 100% 29.66 in 10.0 mi WNW 12.7 mph 18.4 mph 0.10 in Rain Light Rain
2:15 AM 53.6 °F - 53.6 °F 100% 29.67 in 10.0 mi West 8.1 mph - 0.00 in   Overcast
2:38 AM 53.6 °F - 51.8 °F 94% 29.68 in 10.0 mi West 11.5 mph - 0.00 in   Overcast
2:56 AM 52.9 °F - 52.0 °F 97% 29.69 in 10.0 mi West 11.5 mph - 0.00 in   Overcast
3:13 AM 51.8 °F - 51.8 °F 100% 29.70 in 2.5 mi West 17.3 mph 20.7 mph 0.00 in Rain Light Rain
3:17 AM 51.8 °F - 51.8 °F 100% 29.71 in 1.2 mi West 13.8 mph 20.7 mph 0.00 in Rain Light Rain
3:22 AM 51.8 °F - 51.8 °F 100% 29.71 in 1.0 mi West 13.8 mph - 0.00 in Rain Light Rain
3:29 AM 50.0 °F - 50.0 °F 100% 29.72 in 1.0 mi WNW 19.6 mph 23.0 mph 0.00 in Rain Light Rain
3:32 AM 50.0 °F - 50.0 °F 100% 29.72 in 1.2 mi WNW 17.3 mph 23.0 mph 0.00 in Rain Light Rain
3:40 AM 48.2 °F - 48.2 °F 100% 29.74 in 1.2 mi WNW 21.9 mph 26.5 mph 0.00 in Rain Light Rain
3:49 AM 48.2 °F - 48.2 °F 100% 29.74 in 1.8 mi West 17.3 mph - 0.00 in Rain Light Rain
3:56 AM 47.8 °F - 47.8 °F 100% 29.75 in 3.0 mi WNW 19.6 mph 24.2 mph 0.00 in   Overcast
4:27 AM 46.4 °F 40.1 °F 46.4 °F 100% 29.77 in 5.0 mi NW 15.0 mph - N/A   Overcast
4:56 AM 45.9 °F 40.0 °F 45.0 °F 97% 29.80 in 9.0 mi NW 12.7 mph - N/A   Overcast
5:03 AM 46.4 °F 40.7 °F 44.6 °F 93% 29.79 in 10.0 mi NW 12.7 mph - N/A   Overcast
5:56 AM 45.0 °F 38.5 °F 41.9 °F 89% 29.82 in 10.0 mi WNW 13.8 mph 17.3 mph N/A   Overcast
6:08 AM 44.6 °F 39.2 °F 42.8 °F 93% 29.81 in 10.0 mi WNW 10.4 mph - N/A   Overcast
6:43 AM 44.6 °F 39.2 °F 42.8 °F 93% 29.84 in 10.0 mi WNW 10.4 mph - N/A   Overcast
6:56 AM 43.9 °F 38.3 °F 41.0 °F 90% 29.87 in 10.0 mi WNW 10.4 mph - N/A   Mostly Cloudy
7:12 AM 44.6 °F 38.4 °F 39.2 °F 81% 29.86 in 10.0 mi West 12.7 mph - N/A   Scattered Clouds
7:56 AM 45.0 °F 40.1 °F 36.0 °F 71% 29.89 in 10.0 mi West 9.2 mph - N/A   Clear
8:56 AM 45.9 °F 40.4 °F 34.9 °F 66% 29.91 in 10.0 mi WNW 11.5 mph - N/A   Clear
9:56 AM 46.9 °F - 34.0 °F 61% 29.93 in 10.0 mi West 12.7 mph - N/A   Clear
10:56 AM 50.9 °F - 34.9 °F 54% 29.93 in 10.0 mi West 13.8 mph 18.4 mph N/A   Clear
11:56 AM 52.0 °F - 34.9 °F 52% 29.92 in 10.0 mi SW 10.4 mph - N/A   Partly Cloudy
12:56 PM 55.9 °F - 36.9 °F 49% 29.90 in 10.0 mi SW 13.8 mph - N/A   Clear
1:56 PM 57.9 °F - 36.0 °F 44% 29.90 in 10.0 mi WSW 12.7 mph 20.7 mph N/A   Partly Cloudy
2:56 PM 57.9 °F - 37.9 °F 47% 29.89 in 10.0 mi SW 10.4 mph 19.6 mph N/A   Scattered Clouds
3:56 PM 57.9 °F - 36.9 °F 45% 29.90 in 10.0 mi SW 12.7 mph - N/A   Mostly Cloudy
4:56 PM 59.0 °F - 37.9 °F 46% 29.90 in 10.0 mi WSW 11.5 mph - N/A   Mostly Cloudy
5:56 PM 56.8 °F - 39.9 °F 53% 29.91 in 10.0 mi WSW 5.8 mph - N/A   Mostly Cloudy
6:56 PM 55.9 °F - 39.9 °F 55% 29.91 in 10.0 mi SW 4.6 mph - N/A   Mostly Cloudy
7:56 PM 52.0 °F - 45.0 °F 77% 29.93 in 10.0 mi Calm Calm - N/A   Overcast
8:56 PM 48.9 °F - 43.9 °F 83% 29.96 in 10.0 mi Calm Calm - N/A   Overcast
9:56 PM 50.9 °F - 39.9 °F 66% 29.99 in 10.0 mi NNW 10.4 mph - N/A   Clear
10:56 PM 45.9 °F - 38.8 °F 76% 30.01 in 10.0 mi Calm Calm - N/A   Clear
11:56 PM 41.0 °F - 37.9 °F 89% 30.02 in 10.0 mi Calm Calm - N/A   Clear